When you browse on this site, cookies collect data to enhance your experience and personalize the content and advertising you see.
Visit our Privacy Policy to learn more. By continuing to use the site, you agree to this use of cookies and data.
  • In Czech Republic
  • List of Countries
  • For 7 days
  • Water Temperature
  • Weather Map
  • Weather Widgets
  • user-avatar
    Login

    Hourly Weather Santiago del Estero

    Today, 24 September, Tuesday

    Time Temperature Precipitation Wind Pressure Humidity
    00:00 +18°C° 0 mm 2 mps 747 mmHg 44%
    01:00 +17°C° 0 mm 2 mps 747 mmHg 47%
    02:00 +16°C° 0 mm 2 mps 747 mmHg 50%
    03:00 +16°C° 0 mm 2 mps 747 mmHg 52%
    04:00 +14°C° 0 mm 3 mps 747 mmHg 54%
    05:00 +14°C° 0 mm 3 mps 747 mmHg 56%
    06:00 +16°C° 0 mm 3 mps 748 mmHg 56%
    07:00 +18°C° 0 mm 3 mps 749 mmHg 56%
    08:00 +19°C° 0 mm 3 mps 749 mmHg 56%
    09:00 +23°C° 0 mm 2 mps 749 mmHg 48%
    10:00 +26°C° 0 mm 2 mps 749 mmHg 41%
    11:00 +28°C° 0 mm 2 mps 749 mmHg 34%
    12:00 +30°C° 0 mm 2 mps 748 mmHg 31%
    13:00 +31°C° 0 mm 2 mps 747 mmHg 27%
    14:00 +33°C° 0 mm 3 mps 747 mmHg 24%
    15:00 +33°C° 0 mm 3 mps 746 mmHg 23%
    16:00 +33°C° 0 mm 3 mps 746 mmHg 23%
    17:00 +33°C° 0 mm 3 mps 746 mmHg 23%
    18:00 +29°C° 0 mm 3 mps 746 mmHg 28%
    19:00 +26°C° 0 mm 3 mps 747 mmHg 32%
    20:00 +24°C° 0 mm 2 mps 748 mmHg 36%
    21:00 +21°C° 0 mm 2 mps 748 mmHg 40%
    22:00 +20°C° 0 mm 2 mps 748 mmHg 45%
    23:00 +19°C° 0 mm 2 mps 748 mmHg 49%

    Tomorrow, 25 September, Wednesday

    Time Temperature Precipitation Wind Pressure Humidity
    00:00 +19°C° 0 mm 1 mps 748 mmHg 55%
    01:00 +18°C° 0 mm 1 mps 748 mmHg 61%
    02:00 +16°C° 0 mm 1 mps 748 mmHg 68%
    03:00 +16°C° 0 mm 1 mps 748 mmHg 66%
    04:00 +16°C° 0 mm 2 mps 748 mmHg 65%
    05:00 +16°C° 0 mm 2 mps 748 mmHg 64%
    06:00 +18°C° 0 mm 2 mps 748 mmHg 59%
    07:00 +21°C° 0 mm 1 mps 749 mmHg 54%
    08:00 +21°C° 0 mm 0 mps 749 mmHg 49%
    09:00 +25°C° 0 mm 1 mps 749 mmHg 41%
    10:00 +28°C° 0 mm 1 mps 749 mmHg 33%
    11:00 +31°C° 0 mm 1 mps 748 mmHg 25%
    12:00 +31°C° 0 mm 1 mps 748 mmHg 23%
    13:00 +32°C° 0 mm 2 mps 747 mmHg 21%
    14:00 +34°C° 0 mm 2 mps 746 mmHg 19%
    15:00 +34°C° 0 mm 3 mps 745 mmHg 19%
    16:00 +34°C° 0 mm 3 mps 745 mmHg 19%
    17:00 +33°C° 0 mm 4 mps 744 mmHg 20%
    18:00 +30°C° 0 mm 3 mps 744 mmHg 22%
    19:00 +27°C° 0 mm 3 mps 745 mmHg 25%
    20:00 +25°C° 0 mm 3 mps 745 mmHg 28%
    21:00 +22°C° 0 mm 3 mps 745 mmHg 29%
    22:00 +21°C° 0 mm 3 mps 745 mmHg 31%
    23:00 +20°C° 0 mm 3 mps 746 mmHg 33%

    Day after tomorrow, 26 September, Thursday

    Time Temperature Precipitation Wind Pressure Humidity
    00:00 +19°C° 0 mm 3 mps 745 mmHg 36%
    01:00 +18°C° 0 mm 2 mps 745 mmHg 39%
    02:00 +17°C° 0 mm 2 mps 745 mmHg 42%
    03:00 +17°C° 0 mm 2 mps 745 mmHg 43%
    04:00 +17°C° 0 mm 2 mps 745 mmHg 44%
    05:00 +16°C° 0 mm 2 mps 745 mmHg 45%
    06:00 +18°C° 0 mm 3 mps 745 mmHg 41%
    07:00 +20°C° 0 mm 3 mps 746 mmHg 36%
    08:00 +22°C° 0 mm 4 mps 746 mmHg 31%
    09:00 +26°C° 0 mm 4 mps 746 mmHg 28%
    10:00 +29°C° 0 mm 4 mps 746 mmHg 24%
    11:00 +32°C° 0 mm 5 mps 746 mmHg 21%
    12:00 +34°C° 0 mm 5 mps 745 mmHg 20%
    13:00 +35°C° 0 mm 5 mps 744 mmHg 18%
    14:00 +36°C° 0 mm 5 mps 744 mmHg 17%
    15:00 +36°C° 0 mm 5 mps 743 mmHg 17%
    16:00 +35°C° 0 mm 6 mps 742 mmHg 16%
    17:00 +35°C° 0 mm 6 mps 742 mmHg 16%
    18:00 +33°C° 0 mm 6 mps 742 mmHg 19%
    19:00 +29°C° 0 mm 6 mps 742 mmHg 22%
    20:00 +27°C° 0 mm 6 mps 743 mmHg 24%
    21:00 +26°C° 0 mm 6 mps 743 mmHg 27%
    22:00 +23°C° 0 mm 5 mps 743 mmHg 30%
    23:00 +22°C° 0 mm 5 mps 743 mmHg 33%

    27 September, Friday

    Time Temperature Precipitation Wind Pressure Humidity
    00:00 +21°C° 0 mm 4 mps 742 mmHg 36%
    01:00 +20°C° 0 mm 4 mps 742 mmHg 40%
    02:00 +19°C° 0 mm 3 mps 742 mmHg 44%
    03:00 +19°C° 0 mm 3 mps 742 mmHg 46%
    04:00 +18°C° 0 mm 3 mps 741 mmHg 48%
    05:00 +17°C° 0 mm 3 mps 741 mmHg 50%
    06:00 +19°C° 0 mm 4 mps 741 mmHg 47%
    07:00 +20°C° 0 mm 5 mps 742 mmHg 44%
    08:00 +22°C° 0 mm 5 mps 742 mmHg 40%
    09:00 +24°C° 0 mm 6 mps 742 mmHg 35%
    10:00 +28°C° 0 mm 6 mps 741 mmHg 30%
    11:00 +30°C° 0 mm 7 mps 741 mmHg 25%
    12:00 +33°C° 0 mm 7 mps 740 mmHg 22%
    13:00 +35°C° 0 mm 7 mps 739 mmHg 19%
    14:00 +38°C° 0 mm 6 mps 739 mmHg 16%
    15:00 +38°C° 0 mm 6 mps 738 mmHg 16%
    16:00 +38°C° 0 mm 6 mps 738 mmHg 16%
    17:00 +37°C° 0 mm 5 mps 737 mmHg 17%
    18:00 +34°C° 0 mm 5 mps 738 mmHg 20%
    19:00 +30°C° 0 mm 4 mps 738 mmHg 23%
    20:00 +27°C° 0 mm 4 mps 739 mmHg 26%
    21:00 +26°C° 0 mm 4 mps 739 mmHg 31%
    22:00 +25°C° 0 mm 4 mps 739 mmHg 35%
    23:00 +22°C° 0 mm 3 mps 740 mmHg 39%

    28 September, Saturday

    Time Temperature Precipitation Wind Pressure Humidity
    00:00 +21°C° 0 mm 3 mps 740 mmHg 44%
    01:00 +20°C° 0 mm 2 mps 740 mmHg 48%
    02:00 +18°C° 0 mm 2 mps 740 mmHg 53%
    03:00 +18°C° 0 mm 2 mps 740 mmHg 55%
    04:00 +17°C° 0 mm 2 mps 740 mmHg 58%
    05:00 +17°C° 0 mm 2 mps 741 mmHg 61%
    06:00 +19°C° 0 mm 3 mps 741 mmHg 57%
    07:00 +20°C° 0 mm 3 mps 741 mmHg 54%
    08:00 +22°C° 0 mm 3 mps 742 mmHg 50%
    09:00 +25°C° 0 mm 3 mps 742 mmHg 43%
    10:00 +28°C° 0 mm 2 mps 742 mmHg 37%
    11:00 +31°C° 0 mm 2 mps 741 mmHg 30%
    12:00 +34°C° 0 mm 2 mps 741 mmHg 26%
    13:00 +36°C° 0 mm 3 mps 740 mmHg 23%
    14:00 +38°C° 0 mm 3 mps 739 mmHg 20%
    15:00 +38°C° 0 mm 3 mps 738 mmHg 19%
    16:00 +38°C° 0 mm 4 mps 738 mmHg 18%
    17:00 +40°C° 0 mm 4 mps 737 mmHg 17%
    18:00 +36°C° 0 mm 3 mps 738 mmHg 21%
    19:00 +33°C° 0 mm 3 mps 738 mmHg 25%
    20:00 +29°C° 0 mm 3 mps 738 mmHg 28%
    21:00 +28°C° 0 mm 3 mps 738 mmHg 32%
    22:00 +28°C° 0 mm 4 mps 738 mmHg 35%
    23:00 +27°C° 0 mm 4 mps 738 mmHg 38%

    29 September, Sunday

    Time Temperature Precipitation Wind Pressure Humidity
    00:00 +26°C° 0 mm 4 mps 738 mmHg 41%
    01:00 +25°C° 0 mm 3 mps 738 mmHg 44%
    02:00 +24°C° 0 mm 2 mps 737 mmHg 47%
    03:00 +23°C° 0 mm 2 mps 737 mmHg 47%
    04:00 +22°C° 0 mm 3 mps 737 mmHg 47%
    05:00 +22°C° 0 mm 3 mps 737 mmHg 47%
    06:00 +25°C° 0 mm 4 mps 737 mmHg 43%
    07:00 +27°C° 0 mm 5 mps 737 mmHg 38%
    08:00 +29°C° 0 mm 7 mps 737 mmHg 34%
    09:00 +33°C° 0 mm 8 mps 736 mmHg 29%
    10:00 +37°C° 0 mm 8 mps 736 mmHg 24%
    11:00 +40°C° 0 mm 9 mps 736 mmHg 19%
    12:00 +42°C° 0 mm 9 mps 735 mmHg 18%
    13:00 +44°C° 0 mm 9 mps 733 mmHg 16%
    14:00 +45°C° 0 mm 9 mps 732 mmHg 15%
    15:00 +45°C° 0 mm 8 mps 732 mmHg 15%
    16:00 +45°C° 0 mm 8 mps 731 mmHg 15%
    17:00 +45°C° 0 mm 8 mps 730 mmHg 15%
    18:00 +41°C° 0 mm 6 mps 731 mmHg 18%
    19:00 +37°C° 0 mm 5 mps 731 mmHg 20%
    20:00 +34°C° 0 mm 4 mps 731 mmHg 23%
    21:00 +33°C° 0 mm 4 mps 731 mmHg 25%
    22:00 +33°C° 0 mm 4 mps 731 mmHg 26%
    23:00 +32°C° 0 mm 4 mps 731 mmHg 28%
    Show more